Location: Newark
(18.0634°N, 63.0549°W)
Time: 17:30:44
(UTC+00:00)

Envisat - Visible Passes

Search period start: 20 October 2019 00:00
Search period end: 30 October 2019 00:00
Orbit: 764 x 766 km, 98.1° (Epoch: 20 October)

Date Brightness Start Highest point End Pass type
(mag) Time Alt. Az. Time Alt. Az. Time Alt. Az.
20 Oct 6.7 09:46:26 10° ENE 09:48:20 12° E 09:50:14 10° ESE visible
20 Oct 2.9 22:24:19 10° SSE 22:29:20 69° ENE 22:34:23 10° N visible
21 Oct 5.5 23:27:45 10° SSW 23:31:35 21° W 23:35:24 10° NW visible
22 Oct 3.6 22:49:49 10° S 22:54:47 59° W 22:59:47 10° NNW visible
23 Oct 3.2 22:13:13 10° SSE 22:18:07 50° ENE 22:23:00 10° N visible
24 Oct 5.0 23:15:57 10° SSW 23:20:17 29° W 23:24:38 10° NW visible
25 Oct 3.1 22:38:28 10° S 22:43:33 80° W 22:48:36 10° NNW visible
26 Oct 3.5 22:02:15 10° SE 22:06:54 37° ENE 22:11:33 10° N visible
26 Oct 6.0 23:43:14 10° SW 23:45:50 14° W 23:48:27 10° WNW visible
27 Oct 4.4 23:04:19 10° SSW 23:09:01 38° W 23:13:43 10° NNW visible
28 Oct 2.9 22:27:14 10° SSE 22:32:18 77° ENE 22:37:22 10° N visible
29 Oct 5.6 23:31:00 10° SW 23:34:33 19° W 23:38:07 10° NW visible
